User: anonymous   Login
Location: Mactaquac Provincial Park
(45.9573°N, 66.8897°W)
Time: 19:49:07
(UTC-03:00)
Language:

CENTAUR R/B - Orbit

View from above orbital plane
View from above orbital plane
View from above satellite
View from above satellite

Ground track
Ground track

The orbit data is extracted from the following two-line orbital elements,

1 26906U 01040B   17150.08440346 0.00000010  00000-0  11838-4 0    00
2 26906  63.4620  19.7884 0354000 341.7163  18.2837 13.44010868    04
Epoch (UTC): 30 May 2017 02:01:32
Eccentricity: 0.0354000
inclination: 63.4620°
perigee height: 830 km
apogee height: 1359 km
right ascension of ascending node: 19.7884°
argument of perigee: 341.7163°
revolutions per day: 13.44010868
mean anomaly at epoch: 18.2837°
orbit number at epoch: 0

The dashed part of the orbit path shows where the satellite is in the earth's shadow,  

DLR